| time (UTC) | temp F | wind direction | speed MPH | gust MPH | rain 1hr in | rain 24hr in | rain mn in | humidity % | barometer mb |
| 20260508082609 | 34 | 168 | 0.0 | 0.0 | 0.00 | 0.00 | 0.00 | 99 | 1017.5 |
| 20260508082106 | 34 | 168 | 0.0 | 0.0 | 0.00 | 0.00 | 0.00 | 99 | 1017.6 |
| 20260508081603 | 34 | 168 | 0.0 | 0.0 | 0.00 | 0.00 | 0.00 | 99 | 1017.5 |
| 20260508081059 | 34 | 168 | 0.0 | 0.0 | 0.00 | 0.00 | 0.00 | 99 | 1017.6 |
| 20260508080557 | 34 | 168 | 0.0 | 0.0 | 0.00 | 0.00 | 0.00 | 99 | 1017.6 |
| 20260508080055 | 34 | 168 | 0.0 | 0.0 | 0.00 | 0.00 | 0.00 | 99 | 1017.6 |
| 20260508075551 | 34 | 168 | 0.0 | 0.0 | 0.00 | 0.00 | 0.00 | 99 | 1017.7 |
| 20260508075049 | 34 | 168 | 0.0 | 0.0 | 0.00 | 0.00 | 0.00 | 99 | 1017.8 |
| 20260508074546 | 34 | 168 | 0.0 | 0.0 | 0.00 | 0.00 | 0.00 | 99 | 1017.7 |
| 20260508074043 | 35 | 168 | 0.0 | 0.0 | 0.00 | 0.00 | 0.00 | 99 | 1017.5 |
| 20260508073540 | 35 | 168 | 0.0 | 0.0 | 0.00 | 0.00 | 0.00 | 99 | 1017.6 |
| 20260508073038 | 35 | 168 | 0.0 | 0.0 | 0.00 | 0.00 | 0.00 | 99 | 1017.5 |
| 20260508072533 | 35 | 168 | 0.0 | 0.0 | 0.00 | 0.00 | 0.00 | 99 | 1017.4 |
| 20260508072031 | 35 | 168 | 0.0 | 0.0 | 0.00 | 0.00 | 0.00 | 99 | 1017.6 |
| 20260508071528 | 35 | 165 | 0.0 | 0.0 | 0.00 | 0.00 | 0.00 | 99 | 1017.6 |
| 20260508071026 | 35 | 165 | 0.0 | 0.0 | 0.00 | 0.00 | 0.00 | 99 | 1017.6 |
| 20260508070524 | 35 | 165 | 0.0 | 0.0 | 0.00 | 0.00 | 0.00 | 99 | 1017.7 |
| 20260508070022 | 35 | 165 | 0.0 | 0.0 | 0.00 | 0.00 | 0.00 | 99 | 1017.9 |
| 20260508065519 | 35 | 165 | 0.0 | 0.0 | 0.00 | 0.00 | 0.00 | 99 | 1017.8 |
| 20260508065017 | 35 | 165 | 0.0 | 0.0 | 0.00 | 0.00 | 0.00 | 99 | 1017.8 |
| 20260508064514 | 35 | 165 | 0.0 | 0.0 | 0.00 | 0.00 | 0.00 | 99 | 1017.9 |
| 20260508064012 | 35 | 165 | 0.0 | 0.0 | 0.00 | 0.00 | 0.00 | 99 | 1017.9 |
| 20260508063509 | 35 | 165 | 0.0 | 0.0 | 0.00 | 0.00 | 0.00 | 99 | 1017.8 |
| 20260508063007 | 35 | 165 | 0.0 | 0.0 | 0.00 | 0.00 | 0.00 | 99 | 1017.7 |
| 20260508062504 | 36 | 165 | 0.0 | 0.0 | 0.00 | 0.00 | 0.00 | 99 | 1017.7 |
| 20260508062001 | 36 | 165 | 0.0 | 0.0 | 0.00 | 0.00 | 0.00 | 99 | 1017.7 |
| 20260508061459 | 36 | 165 | 0.0 | 0.0 | 0.00 | 0.00 | 0.00 | 99 | 1017.5 |
| 20260508060955 | 36 | 165 | 0.0 | 0.0 | 0.00 | 0.00 | 0.00 | 99 | 1017.6 |
| 20260508060452 | 36 | 165 | 0.0 | 0.0 | 0.00 | 0.00 | 0.00 | 99 | 1017.6 |
| 20260508055948 | 36 | 165 | 0.0 | 0.0 | 0.00 | 0.00 | 0.00 | 99 | 1017.7 |
| 20260508055445 | 36 | 165 | 0.0 | 0.0 | 0.00 | 0.00 | 0.00 | 99 | 1017.6 |
| 20260508054942 | 36 | 165 | 0.0 | 0.0 | 0.00 | 0.00 | 0.00 | 99 | 1017.7 |
| 20260508054439 | 36 | 165 | 0.0 | 0.0 | 0.00 | 0.00 | 0.00 | 99 | 1017.9 |
| 20260508053936 | 36 | 165 | 0.0 | 0.0 | 0.00 | 0.00 | 0.00 | 99 | 1017.9 |
| 20260508053433 | 36 | 165 | 0.0 | 0.0 | 0.00 | 0.00 | 0.00 | 99 | 1018.0 |
| 20260508052931 | 37 | 165 | 0.0 | 0.0 | 0.00 | 0.00 | 0.00 | 99 | 1017.8 |
| 20260508052428 | 36 | 165 | 0.0 | 0.0 | 0.00 | 0.00 | 0.00 | 99 | 1017.9 |
| 20260508051924 | 37 | 165 | 0.0 | 0.0 | 0.00 | 0.00 | 0.00 | 99 | 1018.0 |
| 20260508051420 | 37 | 167 | 0.0 | 0.0 | 0.00 | 0.00 | 0.00 | 99 | 1018.0 |
| 20260508050911 | 37 | 167 | 0.0 | 0.0 | 0.00 | 0.00 | 0.00 | 99 | 1018.0 |
| 20260508050408 | 37 | 167 | 0.0 | 0.0 | 0.00 | 0.00 | 0.00 | 99 | 1018.0 |
| 20260508045903 | 37 | 167 | 0.0 | 0.0 | 0.00 | 0.00 | 0.00 | 99 | 1017.8 |
| 20260508045402 | 37 | 167 | 0.0 | 0.0 | 0.00 | 0.00 | 0.00 | 99 | 1017.9 |
| 20260508044859 | 37 | 167 | 0.0 | 0.0 | 0.00 | 0.00 | 0.00 | 99 | 1017.7 |
| 20260508044356 | 37 | 167 | 0.0 | 0.0 | 0.00 | 0.00 | 0.00 | 98 | 1017.7 |
| 20260508043851 | 37 | 167 | 0.0 | 0.0 | 0.00 | 0.00 | 0.00 | 98 | 1017.9 |
| 20260508043349 | 37 | 167 | 0.0 | 0.0 | 0.00 | 0.00 | 0.00 | 98 | 1017.8 |
| 20260508042845 | 37 | 167 | 0.0 | 0.0 | 0.00 | 0.00 | 0.00 | 98 | 1017.8 |
| 20260508042343 | 37 | 167 | 0.0 | 0.0 | 0.00 | 0.00 | 0.00 | 98 | 1017.8 |
| 20260508041839 | 37 | 168 | 0.0 | 0.0 | 0.00 | 0.00 | 0.00 | 98 | 1017.7 |
| 20260508041336 | 37 | 168 | 0.0 | 0.0 | 0.00 | 0.00 | 0.00 | 98 | 1017.8 |
| 20260508040832 | 38 | 168 | 0.0 | 0.0 | 0.00 | 0.00 | 0.00 | 98 | 1017.7 |
| 20260508040330 | 38 | 168 | 0.0 | 0.0 | 0.00 | 0.00 | 0.00 | 98 | 1017.5 |
| 20260508035827 | 38 | 168 | 0.0 | 0.0 | 0.00 | 0.01 | 0.01 | 97 | 1017.7 |
| 20260508035324 | 38 | 168 | 0.0 | 0.0 | 0.00 | 0.01 | 0.01 | 97 | 1017.6 |
| 20260508034820 | 38 | 167 | 0.0 | 0.0 | 0.00 | 0.01 | 0.01 | 97 | 1017.6 |
| 20260508034318 | 38 | 167 | 0.0 | 0.0 | 0.00 | 0.01 | 0.01 | 97 | 1017.7 |
| 20260508033814 | 38 | 167 | 0.0 | 0.0 | 0.00 | 0.01 | 0.01 | 96 | 1017.6 |
| 20260508033313 | 38 | 167 | 0.0 | 0.0 | 0.00 | 0.01 | 0.01 | 96 | 1017.7 |
| 20260508032810 | 38 | 167 | 0.0 | 0.0 | 0.00 | 0.01 | 0.01 | 96 | 1017.8 |
| 20260508032307 | 38 | 167 | 0.0 | 0.0 | 0.00 | 0.01 | 0.01 | 95 | 1017.5 |
| 20260508031803 | 39 | 167 | 0.0 | 0.0 | 0.00 | 0.01 | 0.01 | 95 | 1017.5 |
| 20260508031300 | 39 | 167 | 0.0 | 0.0 | 0.00 | 0.01 | 0.01 | 95 | 1017.6 |
| 20260508030756 | 39 | 167 | 0.0 | 0.0 | 0.00 | 0.01 | 0.01 | 94 | 1017.4 |
| 20260508030254 | 39 | 167 | 0.0 | 0.0 | 0.00 | 0.01 | 0.01 | 94 | 1017.5 |
| 20260508025750 | 39 | 167 | 0.0 | 0.0 | 0.00 | 0.01 | 0.01 | 93 | 1017.4 |
| 20260508025248 | 39 | 166 | 0.0 | 0.0 | 0.00 | 0.01 | 0.01 | 93 | 1017.3 |
| 20260508024743 | 40 | 166 | 0.0 | 0.0 | 0.00 | 0.01 | 0.01 | 92 | 1017.3 |
| 20260508024240 | 40 | 173 | 0.0 | 0.0 | 0.00 | 0.01 | 0.01 | 92 | 1017.3 |
| 20260508023738 | 40 | 173 | 0.0 | 0.0 | 0.00 | 0.01 | 0.01 | 92 | 1017.2 |
| 20260508023235 | 40 | 173 | 0.0 | 0.0 | 0.00 | 0.01 | 0.01 | 91 | 1017.2 |
| 20260508022731 | 40 | 173 | 0.0 | 0.0 | 0.00 | 0.01 | 0.01 | 90 | 1017.2 |
| 20260508022227 | 40 | 161 | 0.0 | 0.0 | 0.00 | 0.01 | 0.01 | 90 | 1016.9 |
| 20260508021724 | 41 | 161 | 0.0 | 0.0 | 0.00 | 0.01 | 0.01 | 89 | 1016.8 |
| 20260508021219 | 41 | 161 | 0.0 | 0.0 | 0.00 | 0.01 | 0.01 | 89 | 1017.0 |
| 20260508020717 | 41 | 161 | 0.0 | 0.0 | 0.00 | 0.01 | 0.01 | 88 | 1016.8 |
| 20260508020214 | 41 | 161 | 0.0 | 0.0 | 0.00 | 0.01 | 0.01 | 87 | 1016.7 |
| 20260508015711 | 42 | 161 | 0.0 | 0.0 | 0.00 | 0.01 | 0.01 | 86 | 1016.6 |
| 20260508015208 | 42 | 161 | 0.0 | 0.0 | 0.00 | 0.01 | 0.01 | 85 | 1016.7 |
| 20260508014705 | 42 | 161 | 0.0 | 0.0 | 0.00 | 0.01 | 0.01 | 85 | 1016.6 |
| 20260508014201 | 42 | 161 | 0.0 | 0.0 | 0.00 | 0.01 | 0.01 | 85 | 1016.6 |
| 20260508013657 | 43 | 161 | 0.0 | 0.0 | 0.00 | 0.01 | 0.01 | 83 | 1016.6 |
| 20260508013154 | 43 | 160 | 0.0 | 0.0 | 0.00 | 0.01 | 0.01 | 82 | 1016.4 |
| 20260508012652 | 43 | 170 | 0.0 | 0.0 | 0.00 | 0.01 | 0.01 | 81 | 1016.5 |
| 20260508012149 | 44 | 169 | 0.0 | 0.0 | 0.00 | 0.01 | 0.01 | 81 | 1016.6 |
| 20260508011648 | 44 | 169 | 0.0 | 0.0 | 0.00 | 0.01 | 0.01 | 80 | 1016.1 |
| 20260508011144 | 44 | 169 | 0.0 | 0.0 | 0.00 | 0.01 | 0.01 | 79 | 1016.1 |
| 20260508010641 | 45 | 169 | 0.0 | 0.0 | 0.00 | 0.01 | 0.01 | 79 | 1016.1 |
| 20260508010139 | 45 | 186 | 0.0 | 0.0 | 0.00 | 0.01 | 0.01 | 78 | 1016.2 |
| 20260508005636 | 46 | 183 | 0.0 | 0.0 | 0.00 | 0.01 | 0.01 | 77 | 1015.7 |
| 20260508005132 | 46 | 183 | 0.0 | 0.0 | 0.00 | 0.01 | 0.01 | 78 | 1015.9 |
| 20260508004627 | 47 | 183 | 0.0 | 0.0 | 0.00 | 0.01 | 0.01 | 76 | 1015.8 |
| 20260508004124 | 47 | 183 | 0.0 | 0.0 | 0.00 | 0.01 | 0.01 | 75 | 1015.8 |
| 20260508003621 | 48 | 183 | 0.0 | 0.0 | 0.00 | 0.01 | 0.01 | 76 | 1015.7 |
| 20260508003119 | 48 | 195 | 0.0 | 0.0 | 0.00 | 0.01 | 0.01 | 76 | 1015.6 |
| 20260508002615 | 49 | 177 | 0.0 | 0.0 | 0.00 | 0.01 | 0.01 | 75 | 1015.6 |
| 20260508002113 | 49 | 160 | 0.0 | 0.0 | 0.00 | 0.01 | 0.01 | 74 | 1015.6 |
| 20260508001608 | 50 | 161 | 0.0 | 0.0 | 0.00 | 0.01 | 0.01 | 74 | 1015.5 |
| 20260508001104 | 51 | 236 | 0.0 | 0.0 | 0.00 | 0.01 | 0.01 | 74 | 1015.6 |
| 20260508000600 | 51 | 278 | 0.0 | 2.0 | 0.00 | 0.01 | 0.01 | 71 | 1015.4 |
| 20260508000057 | 52 | 196 | 0.0 | 2.0 | 0.00 | 0.01 | 0.01 | 71 | 1015.3 |
| 20260507235554 | 53 | 202 | 0.0 | 0.0 | 0.00 | 0.01 | 0.01 | 68 | 1015.3 |
| 20260507235052 | 55 | 292 | 1.0 | 2.0 | 0.00 | 0.01 | 0.01 | 60 | 1015.0 |
| 20260507234548 | 54 | 178 | 0.0 | 1.0 | 0.00 | 0.01 | 0.01 | 67 | 1015.1 |
| 20260507234044 | 55 | 139 | 1.0 | 2.0 | 0.00 | 0.01 | 0.01 | 59 | 1015.0 |
| 20260507233541 | 57 | 243 | 0.0 | 1.0 | 0.00 | 0.01 | 0.01 | 47 | 1014.9 |
| 20260507233040 | 57 | 50 | 3.0 | 4.0 | 0.00 | 0.01 | 0.01 | 40 | 1014.9 |
| 20260507232536 | 55 | 115 | 0.0 | 1.0 | 0.00 | 0.01 | 0.01 | 58 | 1015.0 |
| 20260507232033 | 55 | 188 | 0.0 | 1.0 | 0.00 | 0.01 | 0.01 | 61 | 1015.0 |
| 20260507231529 | 57 | 286 | 2.0 | 2.0 | 0.00 | 0.01 | 0.01 | 62 | 1014.9 |
| 20260507231027 | 58 | 87 | 1.0 | 2.0 | 0.00 | 0.01 | 0.01 | 39 | 1014.6 |
| 20260507230524 | 58 | 79 | 0.0 | 1.0 | 0.00 | 0.01 | 0.01 | 39 | 1014.8 |
| 20260507230020 | 59 | 259 | 1.0 | 1.0 | 0.00 | 0.01 | 0.01 | 44 | 1014.6 |
| 20260507225515 | 59 | 244 | 4.0 | 6.0 | 0.00 | 0.01 | 0.01 | 40 | 1014.6 |
| 20260507225012 | 59 | 277 | 2.0 | 2.0 | 0.00 | 0.01 | 0.01 | 40 | 1014.6 |
| 20260507224508 | 60 | 306 | 0.0 | 2.0 | 0.00 | 0.01 | 0.01 | 52 | 1014.6 |
| 20260507224005 | 60 | 306 | 3.0 | 3.0 | 0.00 | 0.01 | 0.01 | 37 | 1014.6 |
| 20260507223501 | 62 | 214 | 0.0 | 3.0 | 0.00 | 0.01 | 0.01 | 36 | 1014.3 |
| 20260507222958 | 63 | 272 | 1.0 | 1.0 | 0.00 | 0.01 | 0.01 | 36 | 1014.1 |
| 20260507222455 | 63 | 330 | 1.0 | 2.0 | 0.00 | 0.01 | 0.01 | 37 | 1014.3 |
| 20260507221951 | 63 | 111 | 2.0 | 3.0 | 0.00 | 0.01 | 0.01 | 38 | 1014.1 |
| 20260507221448 | 65 | 56 | 3.0 | 3.0 | 0.00 | 0.01 | 0.01 | 34 | 1013.9 |
| 20260507220944 | 65 | 57 | 2.0 | 3.0 | 0.00 | 0.01 | 0.01 | 35 | 1014.3 |
| 20260507220442 | 64 | 160 | 0.0 | 2.0 | 0.00 | 0.01 | 0.01 | 43 | 1014.2 |
| 20260507215938 | 63 | 323 | 1.0 | 2.0 | 0.00 | 0.01 | 0.01 | 37 | 1014.1 |
| 20260507215435 | 63 | 60 | 2.0 | 3.0 | 0.00 | 0.01 | 0.01 | 39 | 1014.1 |
| 20260507214933 | 64 | 160 | 1.0 | 3.0 | 0.00 | 0.01 | 0.01 | 36 | 1014.0 |
| 20260507214430 | 65 | 39 | 0.0 | 1.0 | 0.00 | 0.01 | 0.01 | 36 | 1014.0 |
| 20260507213925 | 64 | 52 | 0.0 | 3.0 | 0.00 | 0.01 | 0.01 | 36 | 1013.9 |
| 20260507213422 | 64 | 28 | 0.0 | 1.0 | 0.00 | 0.01 | 0.01 | 44 | 1013.6 |
| 20260507212919 | 64 | 329 | 1.0 | 4.0 | 0.00 | 0.01 | 0.01 | 38 | 1013.9 |
| 20260507212414 | 64 | 146 | 0.0 | 3.0 | 0.00 | 0.01 | 0.01 | 41 | 1013.6 |
| 20260507211912 | 65 | 292 | 2.0 | 6.0 | 0.00 | 0.01 | 0.01 | 37 | 1013.8 |
| 20260507211408 | 65 | 273 | 1.0 | 2.0 | 0.00 | 0.01 | 0.01 | 35 | 1013.5 |
| 20260507210905 | 66 | 311 | 1.0 | 4.0 | 0.00 | 0.01 | 0.01 | 34 | 1013.6 |
| 20260507210402 | 66 | 52 | 2.0 | 2.0 | 0.00 | 0.01 | 0.01 | 40 | 1013.5 |
| 20260507205858 | 65 | 77 | 0.0 | 6.0 | 0.00 | 0.01 | 0.01 | 39 | 1013.3 |
| 20260507205355 | 63 | 42 | 0.0 | 4.0 | 0.00 | 0.01 | 0.01 | 38 | 1013.5 |
| 20260507204852 | 63 | 174 | 1.0 | 4.0 | 0.00 | 0.01 | 0.01 | 39 | 1013.5 |
| 20260507204349 | 65 | 175 | 2.0 | 3.0 | 0.00 | 0.01 | 0.01 | 37 | 1013.5 |
| 20260507203847 | 64 | 15 | 2.0 | 2.0 | 0.00 | 0.01 | 0.01 | 42 | 1013.5 |
| 20260507203344 | 61 | 55 | 0.0 | 2.0 | 0.00 | 0.01 | 0.01 | 42 | 1013.3 |
| 20260507202840 | 61 | 72 | 4.0 | 6.0 | 0.00 | 0.01 | 0.01 | 39 | 1013.4 |
| 20260507202337 | 63 | 115 | 4.0 | 6.0 | 0.00 | 0.01 | 0.01 | 37 | 1013.4 |
| 20260507201832 | 63 | 171 | 0.0 | 3.0 | 0.00 | 0.01 | 0.01 | 37 | 1013.5 |
| 20260507201328 | 65 | 292 | 1.0 | 3.0 | 0.00 | 0.01 | 0.01 | 38 | 1013.5 |
| 20260507200825 | 66 | 71 | 2.0 | 3.0 | 0.00 | 0.01 | 0.01 | 38 | 1013.4 |
| 20260507200321 | 65 | 32 | 2.0 | 6.0 | 0.00 | 0.01 | 0.01 | 39 | 1013.5 |
| 20260507195817 | 64 | 44 | 4.0 | 6.0 | 0.00 | 0.01 | 0.01 | 41 | 1013.9 |
| 20260507195314 | 66 | 43 | 3.0 | 4.0 | 0.00 | 0.01 | 0.01 | 39 | 1014.0 |
| 20260507194812 | 65 | 64 | 1.0 | 2.0 | 0.00 | 0.01 | 0.01 | 39 | 1013.9 |
| 20260507194308 | 64 | 119 | 2.0 | 6.0 | 0.00 | 0.01 | 0.01 | 41 | 1013.9 |
| 20260507193804 | 65 | 227 | 2.0 | 3.0 | 0.00 | 0.01 | 0.01 | 39 | 1014.0 |
| 20260507193301 | 65 | 102 | 1.0 | 2.0 | 0.00 | 0.01 | 0.01 | 47 | 1014.0 |
| 20260507192757 | 64 | 108 | 1.0 | 2.0 | 0.00 | 0.01 | 0.01 | 40 | 1014.2 |
| 20260507192254 | 63 | 81 | 2.0 | 3.0 | 0.00 | 0.01 | 0.01 | 42 | 1014.6 |
| 20260507191750 | 62 | 291 | 1.0 | 2.0 | 0.00 | 0.01 | 0.01 | 48 | 1014.3 |
| 20260507191247 | 64 | 70 | 0.0 | 1.0 | 0.00 | 0.01 | 0.01 | 50 | 1014.2 |
| 20260507190744 | 61 | 145 | 0.0 | 0.0 | 0.00 | 0.01 | 0.01 | 45 | 1014.4 |
| 20260507190242 | 62 | 30 | 4.0 | 6.0 | 0.00 | 0.01 | 0.01 | 44 | 1014.2 |
| 20260507185741 | 62 | 257 | 1.0 | 3.0 | 0.00 | 0.01 | 0.01 | 43 | 1014.4 |
| 20260507185237 | 60 | 49 | 1.0 | 3.0 | 0.00 | 0.01 | 0.01 | 46 | 1014.3 |
| 20260507184735 | 60 | 77 | 2.0 | 3.0 | 0.00 | 0.01 | 0.01 | 48 | 1014.6 |
| 20260507184233 | 62 | 95 | 3.0 | 9.0 | 0.00 | 0.01 | 0.01 | 42 | 1014.4 |
| 20260507183729 | 60 | 31 | 1.0 | 7.0 | 0.00 | 0.01 | 0.01 | 45 | 1014.8 |
| 20260507183226 | 60 | 92 | 4.0 | 6.0 | 0.00 | 0.01 | 0.01 | 46 | 1014.4 |
| 20260507182723 | 61 | 54 | 2.0 | 2.0 | 0.00 | 0.01 | 0.01 | 45 | 1014.4 |
| 20260507182218 | 60 | 152 | 0.0 | 2.0 | 0.00 | 0.01 | 0.01 | 47 | 1014.6 |
| 20260507181715 | 60 | 139 | 1.0 | 6.0 | 0.00 | 0.01 | 0.01 | 46 | 1014.6 |
| 20260507181212 | 62 | 36 | 1.0 | 4.0 | 0.00 | 0.01 | 0.01 | 46 | 1014.6 |
| 20260507180709 | 62 | 43 | 1.0 | 2.0 | 0.00 | 0.01 | 0.01 | 46 | 1014.3 |
| 20260507180205 | 62 | 127 | 1.0 | 1.0 | 0.00 | 0.01 | 0.01 | 51 | 1014.6 |
| 20260507175700 | 61 | 58 | 1.0 | 3.0 | 0.00 | 0.01 | 0.01 | 46 | 1014.7 |
| 20260507175153 | 61 | 274 | 3.0 | 4.0 | 0.00 | 0.01 | 0.01 | 49 | 1014.6 |
| 20260507174650 | 62 | 0 | 1.0 | 3.0 | 0.00 | 0.01 | 0.01 | 50 | 1014.6 |
| 20260507174148 | 63 | 147 | 1.0 | 4.0 | 0.00 | 0.01 | 0.01 | 45 | 1014.7 |
| 20260507173645 | 63 | 304 | 1.0 | 3.0 | 0.00 | 0.01 | 0.01 | 47 | 1014.8 |
| 20260507173141 | 62 | 278 | 3.0 | 4.0 | 0.00 | 0.01 | 0.01 | 50 | 1015.2 |
| 20260507172637 | 61 | 42 | 1.0 | 2.0 | 0.00 | 0.01 | 0.01 | 46 | 1014.7 |
| 20260507172135 | 62 | 340 | 1.0 | 3.0 | 0.00 | 0.01 | 0.01 | 44 | 1015.0 |
| 20260507171629 | 61 | 122 | 1.0 | 4.0 | 0.00 | 0.01 | 0.01 | 47 | 1015.0 |
| 20260507171127 | 62 | 161 | 2.0 | 3.0 | 0.00 | 0.01 | 0.01 | 43 | 1015.0 |
| 20260507170623 | 62 | 103 | 3.0 | 4.0 | 0.00 | 0.01 | 0.01 | 46 | 1015.1 |
| 20260507170120 | 60 | 153 | 0.0 | 1.0 | 0.00 | 0.01 | 0.01 | 50 | 1015.1 |
| 20260507165616 | 61 | 65 | 2.0 | 2.0 | 0.00 | 0.01 | 0.01 | 47 | 1015.3 |
| 20260507165113 | 59 | 39 | 2.0 | 4.0 | 0.00 | 0.01 | 0.01 | 51 | 1015.1 |
| 20260507164609 | 58 | 120 | 0.0 | 2.0 | 0.00 | 0.01 | 0.01 | 56 | 1015.2 |
| 20260507164106 | 59 | 16 | 1.0 | 6.0 | 0.00 | 0.01 | 0.01 | 53 | 1015.4 |
| 20260507163604 | 59 | 4 | 1.0 | 3.0 | 0.00 | 0.01 | 0.01 | 51 | 1015.2 |
| 20260507163102 | 60 | 148 | 1.0 | 3.0 | 0.00 | 0.01 | 0.01 | 54 | 1015.4 |
| 20260507162601 | 59 | 138 | 2.0 | 3.0 | 0.00 | 0.01 | 0.01 | 50 | 1015.5 |
| 20260507162059 | 59 | 81 | 0.0 | 2.0 | 0.00 | 0.01 | 0.01 | 56 | 1015.4 |
| 20260507161554 | 58 | 156 | 0.0 | 0.0 | 0.00 | 0.01 | 0.01 | 58 | 1015.7 |
| 20260507161051 | 60 | 277 | 0.0 | 2.0 | 0.00 | 0.01 | 0.01 | 51 | 1015.6 |
| 20260507160548 | 58 | 51 | 0.0 | 2.0 | 0.00 | 0.01 | 0.01 | 54 | 1015.8 |
| 20260507160044 | 58 | 32 | 2.0 | 3.0 | 0.00 | 0.01 | 0.01 | 52 | 1015.8 |
| 20260507155539 | 60 | 280 | 1.0 | 3.0 | 0.00 | 0.01 | 0.01 | 59 | 1015.7 |
| 20260507155038 | 59 | 130 | 0.0 | 1.0 | 0.00 | 0.01 | 0.01 | 60 | 1015.8 |
| 20260507154534 | 58 | 81 | 1.0 | 1.0 | 0.00 | 0.01 | 0.01 | 56 | 1016.0 |
| 20260507154032 | 57 | 132 | 1.0 | 3.0 | 0.00 | 0.01 | 0.01 | 58 | 1015.8 |
| 20260507153528 | 56 | 57 | 1.0 | 3.0 | 0.00 | 0.01 | 0.01 | 58 | 1015.9 |
| 20260507153024 | 56 | 40 | 2.0 | 3.0 | 0.00 | 0.01 | 0.01 | 56 | 1016.0 |
| 20260507152519 | 58 | 310 | 1.0 | 2.0 | 0.00 | 0.01 | 0.01 | 54 | 1015.8 |
| 20260507152016 | 57 | 108 | 0.0 | 2.0 | 0.00 | 0.01 | 0.01 | 56 | 1015.8 |
| 20260507151512 | 56 | 348 | 0.0 | 2.0 | 0.00 | 0.01 | 0.01 | 58 | 1016.0 |
| 20260507151010 | 56 | 38 | 0.0 | 3.0 | 0.00 | 0.01 | 0.01 | 57 | 1015.9 |
| 20260507150506 | 57 | 38 | 0.0 | 3.0 | 0.00 | 0.01 | 0.01 | 54 | 1015.9 |
| 20260507150003 | 57 | 37 | 0.0 | 2.0 | 0.00 | 0.01 | 0.01 | 55 | 1015.9 |
| 20260507145458 | 56 | 38 | 2.0 | 2.0 | 0.00 | 0.01 | 0.01 | 59 | 1016.1 |
| 20260507144955 | 55 | 37 | 2.0 | 3.0 | 0.00 | 0.01 | 0.01 | 61 | 1016.1 |
| 20260507144452 | 55 | 65 | 0.0 | 1.0 | 0.00 | 0.01 | 0.01 | 60 | 1016.1 |
| 20260507143949 | 54 | 65 | 0.0 | 3.0 | 0.00 | 0.01 | 0.01 | 68 | 1015.9 |
| 20260507143447 | 55 | 30 | 1.0 | 1.0 | 0.00 | 0.01 | 0.01 | 74 | 1016.1 |
| 20260507142943 | 55 | 30 | 0.0 | 2.0 | 0.00 | 0.01 | 0.01 | 64 | 1016.1 |
| 20260507142439 | 55 | 52 | 1.0 | 2.0 | 0.00 | 0.01 | 0.01 | 69 | 1016.3 |
| 20260507141937 | 55 | 70 | 3.0 | 6.0 | 0.00 | 0.01 | 0.01 | 64 | 1016.2 |
| 20260507141432 | 54 | 50 | 2.0 | 2.0 | 0.00 | 0.01 | 0.01 | 67 | 1016.4 |
| 20260507140930 | 54 | 50 | 0.0 | 2.0 | 0.00 | 0.01 | 0.01 | 68 | 1016.6 |
| 20260507140426 | 54 | 50 | 0.0 | 2.0 | 0.00 | 0.01 | 0.01 | 72 | 1016.6 |
| 20260507135924 | 53 | 50 | 0.0 | 0.0 | 0.00 | 0.01 | 0.01 | 72 | 1016.8 |
| 20260507135420 | 53 | 50 | 0.0 | 1.0 | 0.00 | 0.01 | 0.01 | 68 | 1016.6 |
| 20260507134918 | 52 | 50 | 0.0 | 1.0 | 0.00 | 0.01 | 0.01 | 72 | 1016.8 |
| 20260507134414 | 52 | 50 | 0.0 | 1.0 | 0.00 | 0.01 | 0.01 | 80 | 1016.9 |
| 20260507133910 | 52 | 50 | 0.0 | 2.0 | 0.00 | 0.01 | 0.01 | 78 | 1016.9 |
| 20260507133406 | 52 | 50 | 0.0 | 1.0 | 0.00 | 0.01 | 0.01 | 76 | 1016.7 |
| 20260507132905 | 52 | 50 | 0.0 | 1.0 | 0.00 | 0.01 | 0.01 | 78 | 1016.7 |
| 20260507132400 | 52 | 50 | 0.0 | 1.0 | 0.00 | 0.01 | 0.01 | 81 | 1016.7 |
| 20260507131858 | 51 | 50 | 0.0 | 1.0 | 0.00 | 0.01 | 0.01 | 86 | 1016.9 |
| 20260507131354 | 51 | 50 | 0.0 | 1.0 | 0.00 | 0.01 | 0.01 | 86 | 1016.9 |
| 20260507130852 | 50 | 50 | 0.0 | 0.0 | 0.00 | 0.01 | 0.01 | 85 | 1016.9 |
| 20260507130348 | 50 | 50 | 0.0 | 1.0 | 0.00 | 0.01 | 0.01 | 90 | 1016.8 |
| 20260507125847 | 50 | 50 | 0.0 | 1.0 | 0.00 | 0.01 | 0.01 | 94 | 1016.8 |
| 20260507125344 | 49 | 50 | 0.0 | 1.0 | 0.00 | 0.01 | 0.01 | 96 | 1016.8 |
| 20260507124842 | 49 | 50 | 0.0 | 1.0 | 0.00 | 0.01 | 0.01 | 99 | 1016.9 |
| 20260507124338 | 49 | 50 | 0.0 | 0.0 | 0.00 | 0.01 | 0.01 | 99 | 1016.9 |
| 20260507123837 | 49 | 50 | 0.0 | 0.0 | 0.00 | 0.01 | 0.01 | 99 | 1017.2 |
| 20260507123333 | 49 | 50 | 0.0 | 1.0 | 0.00 | 0.01 | 0.01 | 99 | 1017.0 |
| 20260507122830 | 48 | 50 | 0.0 | 0.0 | 0.00 | 0.01 | 0.01 | 99 | 1017.0 |
| 20260507122325 | 47 | 50 | 0.0 | 0.0 | 0.00 | 0.01 | 0.01 | 99 | 1017.0 |
| 20260507121822 | 46 | 50 | 0.0 | 0.0 | 0.00 | 0.01 | 0.01 | 99 | 1017.0 |
| 20260507121317 | 47 | 50 | 0.0 | 0.0 | 0.00 | 0.01 | 0.01 | 99 | 1017.1 |
| 20260507120814 | 47 | 50 | 0.0 | 0.0 | 0.00 | 0.01 | 0.01 | 99 | 1017.0 |
| 20260507120310 | 46 | 50 | 0.0 | 0.0 | 0.00 | 0.01 | 0.01 | 99 | 1017.1 |
| 20260507115807 | 46 | 50 | 0.0 | 0.0 | 0.00 | 0.01 | 0.01 | 99 | 1017.1 |
| 20260507115306 | 46 | 50 | 0.0 | 0.0 | 0.00 | 0.01 | 0.01 | 99 | 1017.2 |
| 20260507114759 | 46 | 50 | 0.0 | 0.0 | 0.00 | 0.01 | 0.01 | 99 | 1017.2 |
| 20260507114256 | 46 | 50 | 0.0 | 0.0 | 0.00 | 0.01 | 0.01 | 99 | 1017.0 |
| 20260507113753 | 46 | 50 | 0.0 | 0.0 | 0.00 | 0.01 | 0.01 | 99 | 1017.0 |
| 20260507113250 | 46 | 50 | 0.0 | 0.0 | 0.00 | 0.01 | 0.01 | 99 | 1017.1 |
| 20260507112748 | 46 | 50 | 0.0 | 0.0 | 0.00 | 0.01 | 0.01 | 99 | 1016.7 |
| 20260507112244 | 45 | 50 | 0.0 | 0.0 | 0.00 | 0.01 | 0.01 | 99 | 1016.5 |
| 20260507111742 | 45 | 50 | 0.0 | 0.0 | 0.00 | 0.01 | 0.01 | 99 | 1016.5 |
| 20260507111238 | 45 | 50 | 0.0 | 0.0 | 0.00 | 0.01 | 0.01 | 99 | 1016.6 |
| 20260507110734 | 45 | 50 | 0.0 | 0.0 | 0.00 | 0.01 | 0.01 | 99 | 1016.6 |
| 20260507110231 | 45 | 50 | 0.0 | 0.0 | 0.00 | 0.01 | 0.01 | 99 | 1016.4 |
| 20260507105728 | 44 | 50 | 0.0 | 0.0 | 0.00 | 0.01 | 0.01 | 99 | 1016.4 |
| 20260507105224 | 44 | 50 | 0.0 | 0.0 | 0.00 | 0.01 | 0.01 | 99 | 1016.4 |
| 20260507104721 | 44 | 50 | 0.0 | 0.0 | 0.00 | 0.01 | 0.01 | 99 | 1016.3 |
| 20260507104218 | 44 | 50 | 0.0 | 0.0 | 0.00 | 0.01 | 0.01 | 99 | 1016.3 |
| 20260507103714 | 44 | 50 | 0.0 | 0.0 | 0.00 | 0.01 | 0.01 | 99 | 1016.2 |
| 20260507103210 | 44 | 50 | 0.0 | 0.0 | 0.00 | 0.01 | 0.01 | 99 | 1016.0 |
| 20260507102707 | 44 | 50 | 0.0 | 0.0 | 0.00 | 0.01 | 0.01 | 99 | 1016.1 |
| 20260507102203 | 44 | 50 | 0.0 | 0.0 | 0.00 | 0.01 | 0.01 | 99 | 1016.1 |
| 20260507101659 | 43 | 50 | 0.0 | 0.0 | 0.00 | 0.01 | 0.01 | 99 | 1016.3 |
| 20260507101155 | 43 | 50 | 0.0 | 0.0 | 0.00 | 0.01 | 0.01 | 99 | 1016.3 |
| 20260507100652 | 43 | 50 | 0.0 | 0.0 | 0.00 | 0.01 | 0.01 | 99 | 1016.2 |
| 20260507100151 | 43 | 50 | 0.0 | 0.0 | 0.00 | 0.01 | 0.01 | 99 | 1016.2 |
| 20260507095648 | 43 | 50 | 0.0 | 0.0 | 0.00 | 0.01 | 0.01 | 99 | 1016.3 |
| 20260507095145 | 42 | 50 | 0.0 | 0.0 | 0.00 | 0.01 | 0.01 | 99 | 1016.2 |
| 20260507094641 | 42 | 50 | 0.0 | 0.0 | 0.00 | 0.01 | 0.01 | 99 | 1016.3 |
| 20260507094138 | 42 | 50 | 0.0 | 0.0 | 0.00 | 0.01 | 0.01 | 99 | 1016.3 |
| 20260507093635 | 42 | 50 | 0.0 | 0.0 | 0.00 | 0.01 | 0.01 | 99 | 1016.1 |
| 20260507093134 | 43 | 50 | 0.0 | 0.0 | 0.00 | 0.01 | 0.01 | 99 | 1016.0 |
| 20260507092630 | 43 | 50 | 0.0 | 0.0 | 0.00 | 0.01 | 0.01 | 99 | 1016.1 |
| 20260507092127 | 43 | 50 | 0.0 | 0.0 | 0.00 | 0.01 | 0.01 | 99 | 1015.9 |
| 20260507091624 | 43 | 50 | 0.0 | 0.0 | 0.00 | 0.01 | 0.01 | 99 | 1015.9 |
| 20260507091119 | 44 | 50 | 0.0 | 0.0 | 0.00 | 0.01 | 0.01 | 99 | 1016.1 |
| 20260507090615 | 44 | 50 | 0.0 | 0.0 | 0.00 | 0.01 | 0.01 | 99 | 1016.0 |
| 20260507090108 | 44 | 50 | 0.0 | 0.0 | 0.00 | 0.01 | 0.01 | 99 | 1016.1 |
| 20260507085604 | 44 | 50 | 0.0 | 0.0 | 0.00 | 0.01 | 0.01 | 99 | 1016.1 |
| 20260507085101 | 45 | 50 | 0.0 | 0.0 | 0.00 | 0.01 | 0.01 | 99 | 1016.0 |
| 20260507084558 | 45 | 50 | 0.0 | 0.0 | 0.00 | 0.01 | 0.01 | 99 | 1015.9 |
| 20260507084055 | 45 | 50 | 0.0 | 0.0 | 0.00 | 0.01 | 0.01 | 99 | 1016.0 |
| 20260507083551 | 46 | 50 | 0.0 | 0.0 | 0.00 | 0.01 | 0.01 | 99 | 1015.7 |
| 20260507083048 | 46 | 50 | 0.0 | 0.0 | 0.00 | 0.01 | 0.01 | 99 | 1016.1 |